Weather in Honolulu

United States     21°20′15″N   157°55′07″W
temp.,
°C
wind,
m/s
gust,
m/s
humid.,
%
clouds,
%
prec.,
mm/h
press.,
hPa
HPBL,
m
18 may, tue
tue1823:00+23ene1113730 0.0 10191166
02:00+23ene1113721 0.0 10171116
05:00+23ene912692 0.0 10171073
08:00+24ene1112721 0.1 1018993
11:00+25e1111675 0.0 10181243
14:00+25ene1111640 0.0 10171198
17:00+25ene1111660 0.0 10161028
20:00+24ene1010710 0.0 10181024
19 may, wed
wed1923:00+24ene910751 0.1 1020887
02:00+23ene910761 0.1 1018976
05:00+23ene910765 0.0 1018886
08:00+24e79690 0.1 1019900
11:00+25e99665 0.0 10191185
14:00+25e1010645 0.0 10171045
17:00+25ene1110705 0.0 10171025
20:00+24ene1112755 0.0 1018937
20 may, thu
thu2023:00+24ene10127237 0.0 10191027
02:00+23ene8106851 0.0 1017937
05:00+23ene787297 0.0 1017820
08:00+24ene886814 0.0 1018908
11:00+25e986137 0.0 10181110
14:00+26e885993 0.0 10171101
17:00+25ene985953 0.0 1016994
20:00+24ene910650 0.0 1017909
21 may, fri
fri2123:00+24ene89700 0.0 10181168
02:00+23ene78701 0.0 1017959
05:00+23ene79751 0.0 1016784
08:00+24e78703 0.1 1017942
11:00+25ese56658 0.3 1018990
14:00+26e87630 0.3 10171079
17:00+25ene99620 0.0 1016950
20:00+24ene910680 0.0 1018903
22 may, sat
sat2223:00+24ene910740 0.0 1018976
02:00+23ene89760 0.1 1017893
05:00+23ene57761 0.1 1017631
08:00+24ene77720 0.1 1018764
11:00+25e76685 0.1 1018986
14:00+26e98671 0.1 1017934
17:00+25ene98670 0.0 1016702
20:00+24ene78736 0.0 1018769